Starlink 31146

operational
NORAD ID: 58769 Int'l Des: 2024-011 Owner: SPXS Country: US Constellation: starlink
LEOCIRCULAR

About Starlink 31146

Description loading...

Live Position

Loading 3D Globe...

Upcoming Passes

Altitude History

Altitude vs Time

uPlot chart will show altitude changes over time

Two-Line Element Set

1 58769U 24011E 26034.54567873 .00002783 00000-0 10611-3 0 9995
2 58769 53.1586 172.2053 0001278 86.8055 273.3092 15.30186233115044
Epoch: Feb 3, 2026 • Age: 20 hours

Current Status

Altitude 487.0 km
Velocity 7.62 km/s
Sub-Earth Point -35.06°S, 136.91°W
Launch Date Jan 14, 2024
Age 2 years
Type internet

Technical Details

Classification Payload
Mass 730.00 kg
Dry Mass 700.00 kg
Total Mass 730.00 kg
Length 0.30 m
Diameter 4.10 m
Span 29.00 m
Shape Box + pan
Manufacturer SPXS
Bus Type Starlink V2M
Phase Status In Orbit
Owner/State SPXS/US

Large Constellations

Loading constellations...